Regional Weather Roundup
Issued by NWS

Home | Current Version | Previous Version | Graphics & Text | Print | Product List | Glossary On
Versions: 1 2 3 4 5 6 7 8 9 10 11 12 13 14 15 16 17 18 19 20 21 22 23 24 25 26 27 28 29 30 31 32 33 34 35 36 37 38 39 40 41 42 43 44 45 46 47 48 49 50
000
ASUS43 KLSX 221557
RWRMO

WEATHER SUMMARY FOR MISSOURI
NATIONAL WEATHER SERVICE SPRINGFIELD MO
1000 AM CST WED NOV 22 2017

NOTE: "FAIR" INDICATES FEW OR NO CLOUDS BELOW 12,000 FEET WITH NO
       SIGNIFICANT WEATHER AND/OR OBSTRUCTIONS TO VISIBILITY.
       CURRENT SKY AND/OR WEATHER CONDITIONS ARE NOT AVAILABLE FOR
       CHILLICOTHE AND FARMINGTON.

MOZ001>031-035>038-043-044-053-054-221700-
...NORTHERN AND WESTERN MISSOURI...

CITY           SKY/WX    TMP DP  RH WIND       PRES   REMARKS
KANSAS CTY INT MOSUNNY   28  16  60 SE5       30.43F WCI  23
LEE`S SUMMIT   SUNNY     29  15  56 VRB5      30.44S WCI  24
ST JOSEPH      SUNNY     26  16  65 SE6       30.44F WCI  19
CHILLICOTHE      N/A     29  16  58 CALM      30.46R

$$
MOZ066>068-077>081-088>096-101>105-221700-
...SOUTHWEST MISSOURI...

CITY           SKY/WX    TMP DP  RH WIND       PRES   REMARKS
SPRINGFIELD    SUNNY     33  19  56 NE5       30.39R WCI  29
JOPLIN         SUNNY     31  21  66 VRB6      30.43R WCI  25
BRANSON        SUNNY     32  18  55 CALM      30.39R

$$
MOZ032>034-039>042-045>050-055>058-069>072-221700-
...CENTRAL MISSOURI...

CITY           SKY/WX    TMP DP  RH WIND       PRES   REMARKS
COLUMBIA       NOT AVBL
JEFFERSON CITY SUNNY     30  16  56 E5        30.44F WCI  25
ROLLA          SUNNY     29  18  63 NE3       30.40F
SEDALIA        SUNNY     30  19  63 VRB3      30.46R
WARRENSBURG    SUNNY     28  18  64 NE5       30.45S WCI  23

$$
MOZ051-052-059>065-221700-
...EAST CENTRAL MISSOURI...

CITY           SKY/WX    TMP DP  RH WIND       PRES   REMARKS
ST LOUIS INTL  SUNNY     31  19  61 CALM      30.43S

$$
MOZ072>076-082>087-097>100-106>115-221700-
...SOUTH CENTRAL AND SOUTHEAST MISSOURI...

CITY           SKY/WX    TMP DP  RH WIND       PRES   REMARKS
CAPE GIRARDEAU SUNNY     35  20  54 NE9       30.41S WCI  28
POPLAR BLUFF   SUNNY     37  21  52 NE10      30.41R WCI  30
WEST PLAINS    SUNNY     35  18  49 N6        30.37F

$$


USA.gov is the U.S. government's official web portal to all federal, state and local government web resources and services.